This demonstration page uses our WeatherBlox Daily Observations layout. Learn more.

Left ArrowRight Arrow

36.19886, -115.1175

Hourly Observations for August 3, 2015

Temp ( °F °C ) Dew Point ( °F °C ) Humidity (%) Winds ( mph kmh ) Pressure ( in mb ) Visibility ( mi km ) Precip ( " mm )
12:53 am 00:53 Clear 86 30 50 10 29 29 NW 6 9 29.76 1008 10 16 0.00 0.00
1:53 am 01:53 Clear 84 28.9 50 10 31 31 NNW 3 6 29.76 1008 10 16 0.00 0.00
2:53 am 02:53 Clear 82 27.8 52 11.1 35 35 Calm 29.77 1008 10 16 0.00 0.00
3:53 am 03:53 Clear 81 27.2 52 11.1 37 37 N 3 6 29.77 1008 10 16 0.00 0.00
4:53 am 04:53 Clear 79 26.1 54 12.2 42 42 NNW 5 7 29.79 1009 10 16 0.00 0.00
5:53 am 05:53 Sunny 81 27.2 49 9.4 33 33 N 6 9 29.81 1009 10 16 0.00 0.00
6:53 am 06:53 Sunny 81 27.2 50 10 34 34 NNW 6 9 29.82 1010 10 16 0.00 0.00
7:53 am 07:53 Sunny 86 30 49 9.4 28 28 NNE 6 9 29.83 1010 10 16 0.00 0.00
8:53 am 08:53 Sunny 89 31.7 46 7.8 23 23 Calm 29.84 1010 10 16 0.00 0.00
9:53 am 09:53 Sunny 92 33.3 45 7.2 20 20 VRB 3 6 29.84 1011 10 16 0.00 0.00
10:53 am 10:53 Sunny 96 35.6 44 6.7 17 17 SSE 6 9 29.84 1011 10 16 0.00 0.00
11:53 am 11:53 Sunny 101 38.3 40 4.4 12 12 E 10 17 29.81 1010 10 16 0.00 0.00
12:53 pm 12:53 Sunny 103 39.4 38 3.3 11 11 W 7 11 29.80 1009 10 16 0.00 0.00
1:53 pm 13:53 Sunny 104 40 38 3.3 10 10 S 14 22 29.78 1008 10 16 0.00 0.00
2:53 pm 14:53 Sunny 103 39.4 36 2.2 10 10 SSW 7 11 29.76 1008 10 16 0.00 0.00
3:53 pm 15:53 Sunny 104 40 34 1.1 9 9 SW 9 15 29.74 1007 10 16 0.00 0.00
4:53 pm 16:53 Sunny 104 40 37 2.8 10 10 W 12 19 29.72 1007 10 16 0.00 0.00
5:53 pm 17:53 Sunny 104 40 35 1.7 9 9 SW 15 24 29.71 1006 10 16 0.00 0.00
6:53 pm 18:53 Sunny 102 38.9 32 0 9 9 SW 14 22 29.72 1006 10 16 0.00 0.00
7:53 pm 19:53 Clear 99 37.2 31 -0.6 9 9 SW 13 20 29.72 1007 10 16 0.00 0.00
8:53 pm 20:53 Clear 97 36.1 29 -1.7 9 9 WSW 9 15 29.74 1007 10 16 0.00 0.00
9:53 pm 21:53 Clear 95 35 27 -2.8 9 9 SW 9 15 29.76 1008 10 16 0.00 0.00
10:53 pm 22:53 Clear 93 33.9 25 -3.9 8 8 WSW 9 15 29.76 1008 10 16 0.00 0.00
11:53 pm 23:53 Clear 90 32.2 23 -5 9 9 WSW 7 11 29.77 1008 10 16 0.00 0.00

Powered by AerisWeather